[[{"header":{"parameterUnit":"m.s-1","parameterCategory":1,"la1":30.2991,"la2":30.254,"lo1":-89.0895,"lo2":-89.0444,"dy":0.0017,"dx":0.0017,"nx":28,"ny":28,"refTime":"2024-02-22T03:00:00:Z","depth":0,"parameterNumber":2,"parameterNumberName":"U-component_of_WINDS"},"data":[0,0,0,0,0,0,0,0,0,0,0,0,0,0,0,0,0,0,0,0,0,0,0,0,0,0,0,0,0,0,0,0,0,0,0,0,0,0,0,0,0,0,0,0,0,0,0,0,0,0,0,0,0,0,0,0,0,0,3.4531,3.4532,0,3.4589,3.4589,3.459,3.4588,3.4587,3.4586,3.4585,3.4645,3.4647,3.4649,0,0,0,0,0,0,0,0,0,0,0,0,0,3.4423,3.4425,3.4531,3.4532,3.4532,3.4589,3.4589,3.459,3.4588,3.4587,3.4586,3.4585,3.4644,3.4647,3.4649,0,0,0,0,0,0,0,0,0,0,0,0,0,3.4474,3.4426,3.4531,3.4538,3.4539,3.4588,3.4589,3.459,3.4588,3.4587,3.4586,3.4585,3.4643,3.4646,3.465,3.4696,0,0,3.466,3.4662,0,0,0,0,0,0,0,0,3.4471,3.4478,3.4536,3.4538,3.4539,3.458,3.4573,3.4626,3.4588,3.457,3.4585,3.4584,3.4624,3.4629,3.4643,3.4698,3.4701,3.4661,3.4663,3.4664,3.4665,0,0,0,0,0,0,0,3.4468,3.4476,3.4554,3.4537,3.4539,3.454,3.4546,3.4583,3.4603,3.4571,3.4571,3.4578,3.4625,3.4639,3.4644,3.4702,3.4661,3.4664,3.4666,3.4667,3.4805,3.4806,0,0,0,0,0,0,3.4462,3.4473,3.4552,3.4556,3.4502,3.4543,3.4549,3.4568,3.4602,3.4607,3.4579,3.4578,3.4634,3.464,3.4646,3.4706,3.4664,3.4668,3.467,3.4803,3.4805,3.4807,0,0,0,0,0,0,3.446,3.4469,3.455,3.4514,3.4525,3.4546,3.4567,3.457,3.4584,3.4608,3.4612,3.459,3.4633,3.4641,3.4685,3.4708,3.4669,3.4672,3.4801,3.4804,3.4806,3.4823,0,0,0,0,0,0,3.4457,3.4469,3.4485,3.4515,3.4526,3.4586,3.4568,3.4572,3.459,3.4589,3.462,3.4624,3.4633,3.468,3.4688,3.4712,3.4675,3.4799,3.4802,3.4805,3.4821,3.4826,3.483,0,0,0,0,0,3.4453,3.4486,3.4485,3.4495,3.4547,3.4587,3.4594,3.4604,3.4592,3.461,3.4626,3.4623,3.4704,3.4684,3.4694,3.4719,3.4798,3.4802,3.4805,3.4819,3.4825,3.483,0,0,0,0,0,0,3.4457,3.449,3.449,3.4533,3.4558,3.4587,3.4609,3.4609,3.4637,3.4635,3.4647,3.4654,3.4698,3.4713,3.469,3.4768,3.475,3.4755,3.4757,3.4763,3.4768,3.4764,3.4678,0,0,0,0,0,3.4463,3.4492,3.452,3.4555,3.4568,3.4587,3.4604,3.461,3.4636,3.4646,3.4666,3.4691,3.4724,3.4744,3.4774,3.4823,3.4832,3.4846,3.4851,3.4854,3.4859,3.4892,3.4899,3.4818,3.4818,3.4818,0,0,3.4475,3.4497,3.4514,3.4557,3.4576,3.4609,3.4595,3.4628,3.4653,3.4651,3.4695,3.471,3.474,3.4788,3.481,3.4802,3.4884,3.4859,3.4862,3.4865,3.4896,3.4904,3.4911,3.4821,3.482,3.482,0,0,3.4514,3.4533,3.4567,3.4588,3.4619,3.4632,3.464,3.4671,3.4682,3.4726,3.4727,3.4757,3.481,3.4833,3.4852,3.4907,3.4906,3.4916,3.4941,3.4973,3.4979,3.4985,3.5008,3.5016,3.4921,3.4921,3.4921,0,3.4526,3.4573,3.4584,3.4619,3.464,3.4642,3.4679,3.4698,3.4737,3.4753,3.4742,3.4814,3.4833,3.4889,3.4903,3.4917,3.493,3.4913,3.4977,3.4983,3.4989,3.5011,3.5019,3.4922,3.4922,3.4922,3.4922,0,3.4588,3.4621,3.4645,3.4685,3.4708,3.4743,3.4762,3.4785,3.479,3.4805,3.4853,3.4878,3.4916,3.4929,3.4934,3.4988,3.4982,3.4975,3.4956,3.4998,3.5019,3.5027,3.4924,3.4924,3.4923,3.4923,0,0,3.4627,3.4677,3.4686,3.4706,3.4743,3.477,3.4808,3.4846,3.4867,3.4895,3.4929,3.4977,3.4972,3.4993,3.5001,3.5028,3.5076,3.5019,3.502,3.5031,3.5142,3.5148,3.5158,3.5076,3.5077,3.5079,3.514,0,3.4672,3.4739,3.4753,3.4811,3.4844,3.485,3.4883,3.4911,3.4928,3.496,3.4978,3.5014,3.5002,3.5016,3.5044,3.5064,3.5099,3.506,3.511,3.5111,3.5103,3.5168,3.5174,3.5231,3.5148,3.515,3.5151,0,3.4733,3.4765,3.4827,3.4865,3.488,3.4909,3.4948,3.4978,3.5011,3.5022,3.5049,3.5055,3.5098,3.5078,3.5139,3.5113,3.5135,3.5148,3.5151,3.5157,3.5134,3.5178,3.5248,3.5258,3.5163,3.5162,3.5161,0,3.476,3.4818,3.4865,3.4882,3.4926,3.4947,3.4967,3.4999,3.5023,3.5058,3.5074,3.5113,3.5135,3.5166,3.5184,3.5167,3.5245,3.5226,3.5258,3.5257,3.5273,3.5272,3.5351,3.5285,3.5285,3.5284,3.5284,0,3.4809,3.4847,3.4878,3.4906,3.4951,3.4968,3.5013,3.5033,3.5063,3.5097,3.5104,3.5136,3.5158,3.5194,3.5209,3.526,3.5268,3.528,3.5284,3.5281,3.5279,3.5295,3.5293,3.5287,3.5286,3.5286,3.5285,0,3.4846,3.4867,3.4919,3.4958,3.4969,3.5001,3.5036,3.5065,3.5084,3.5128,3.5139,3.5168,3.5212,3.5234,3.5287,3.5298,3.5356,3.5356,3.5345,3.5347,3.5379,3.5376,3.5471,3.5486,3.5408,3.5409,3.5409,0,3.4876,3.4907,3.4951,3.4975,3.4996,3.5033,3.5059,3.5079,3.5106,3.515,3.5175,3.522,3.5256,3.5327,3.5354,3.5396,3.5399,3.543,3.5405,3.5403,3.5403,3.5402,3.5407,3.5434,3.5435,3.5435,3.5436,0,3.493,3.494,3.4976,3.5019,3.505,3.5083,3.5117,3.5136,3.5162,3.5192,3.5238,3.5267,3.5325,3.537,3.5416,3.5438,3.5443,3.5444,3.5454,3.5451,3.5445,3.5452,3.5359,3.5441,3.544,3.544,3.544,3.544,3.4966,3.4995,3.5032,3.5074,3.5102,3.5135,3.5166,3.519,3.5229,3.5278,3.5287,3.5337,3.5376,3.5438,3.5462,3.5503,3.5497,3.551,3.5514,3.5518,3.5521,3.5438,3.5511,3.5511,3.5511,3.5511,3.5511,0,3.5022,3.5048,3.5086,3.5134,3.5169,3.5171,3.521,3.5239,3.5283,3.5318,3.5355,3.5411,3.5457,3.5489,3.5537,3.5564,3.5567,3.5576,3.5575,3.5581,3.5522,3.551,3.5572,3.5572,3.5572,3.5572,3.5572,3.5572,3.5055,3.5107,3.5123,3.519,3.5215,3.5264,3.5287,3.5319,3.5348,3.541,3.5448,3.547,3.5506,3.5557,3.56,3.5609,3.5627,3.5636,3.5645,3.559,3.5584,3.5578,3.5567,3.5639,3.5639,3.5701,3.5701,3.5701]},{"header":{"parameterUnit":"m.s-1","parameterCategory":1,"la1":30.2991,"la2":30.254,"lo1":-89.0895,"lo2":-89.0444,"dy":0.0017,"dx":0.0017,"nx":28,"ny":28,"refTime":"2024-02-22T03:00:00:Z","depth":0,"parameterNumber":3,"parameterNumberName":"V-component_of_WINDS"},"data":[0,0,0,0,0,0,0,0,0,0,0,0,0,0,0,0,0,0,0,0,0,0,0,0,0,0,0,0,0,0,0,0,0,0,0,0,0,0,0,0,0,0,0,0,0,0,0,0,0,0,0,0,0,0,0,0,0,0,-3.8367,-3.8365,0,-3.8107,-3.8104,-3.8102,-3.8094,-3.8097,-3.81,-3.8103,-3.7821,-3.7811,-3.78,0,0,0,0,0,0,0,0,0,0,0,0,0,-3.8842,-3.8834,-3.8368,-3.8364,-3.8361,-3.8108,-3.8104,-3.8101,-3.8093,-3.8097,-3.8101,-3.8105,-3.7824,-3.7812,-3.7799,0,0,0,0,0,0,0,0,0,0,0,0,0,-3.8614,-3.8831,-3.8368,-3.8327,-3.8321,-3.8109,-3.8104,-3.81,-3.8092,-3.8097,-3.8102,-3.8107,-3.7828,-3.7813,-3.7798,-3.7604,0,0,-3.7749,-3.7743,0,0,0,0,0,0,0,0,-3.8627,-3.8597,-3.8337,-3.833,-3.8322,-3.8138,-3.8168,-3.7933,-3.8091,-3.8179,-3.8103,-3.8109,-3.7922,-3.7898,-3.7839,-3.759,-3.7578,-3.7748,-3.7738,-3.7732,-3.7727,0,0,0,0,0,0,0,-3.8643,-3.8608,-3.8264,-3.8333,-3.8324,-3.8317,-3.829,-3.8123,-3.8025,-3.8171,-3.817,-3.8141,-3.7918,-3.7854,-3.7832,-3.7574,-3.7748,-3.7734,-3.7725,-3.7719,-3.715,-3.7144,0,0,0,0,0,0,-3.8669,-3.8621,-3.8273,-3.8256,-3.849,-3.8304,-3.8274,-3.8192,-3.8028,-3.8007,-3.8137,-3.8141,-3.7878,-3.785,-3.7822,-3.7581,-3.7732,-3.7717,-3.7708,-3.7155,-3.7148,-3.7142,0,0,0,0,0,0,-3.8679,-3.8638,-3.8283,-3.8438,-3.8393,-3.8291,-3.8199,-3.8185,-3.812,-3.8002,-3.7982,-3.809,-3.7881,-3.7844,-3.7658,-3.7571,-3.771,-3.7696,-3.7162,-3.7153,-3.7145,-3.71,0,0,0,0,0,0,-3.8693,-3.8642,-3.8571,-3.8437,-3.8385,-3.8128,-3.8194,-3.8176,-3.8095,-3.8098,-3.7952,-3.7932,-3.7882,-3.7682,-3.7643,-3.7552,-3.7683,-3.7169,-3.7158,-3.7148,-3.7109,-3.7091,-3.7076,0,0,0,0,0,-3.871,-3.8565,-3.8567,-3.8525,-3.8294,-3.8124,-3.8093,-3.8042,-3.8088,-3.8013,-3.7936,-3.7937,-3.7588,-3.7663,-3.7619,-3.7522,-3.7174,-3.7161,-3.7149,-3.7116,-3.7095,-3.7076,0,0,0,0,0,0,-3.8686,-3.8547,-3.8547,-3.8357,-3.8253,-3.8123,-3.8026,-3.8021,-3.7898,-3.7905,-3.7843,-3.781,-3.7625,-3.7555,-3.7641,-3.7324,-3.7386,-3.7364,-3.7376,-3.7355,-3.7339,-3.7357,-3.767,0,0,0,0,0,-3.866,-3.8538,-3.8421,-3.8263,-3.8212,-3.8128,-3.8052,-3.8023,-3.791,-3.7864,-3.7774,-3.766,-3.7525,-3.7436,-3.7305,-3.71,-3.7065,-3.7011,-3.6995,-3.6982,-3.6962,-3.6845,-3.6818,-3.7101,-3.7101,-3.7101,0,0,-3.8601,-3.851,-3.8436,-3.8256,-3.8172,-3.8041,-3.8091,-3.7951,-3.7852,-3.7841,-3.7661,-3.7591,-3.7459,-3.7263,-3.7171,-3.7198,-3.6877,-3.6966,-3.6957,-3.6943,-3.6829,-3.6802,-3.6778,-3.7092,-3.7094,-3.7095,0,0,-3.8428,-3.8349,-3.8208,-3.8124,-3.7998,-3.7944,-3.791,-3.7781,-3.7735,-3.7555,-3.7543,-3.7422,-3.7191,-3.7098,-3.7019,-3.6812,-3.6806,-3.677,-3.6683,-3.6569,-3.6547,-3.6527,-3.6448,-3.6422,-3.6752,-3.6752,-3.6752,0,-3.8369,-3.8178,-3.8135,-3.7996,-3.7915,-3.7905,-3.7758,-3.7677,-3.7512,-3.7454,-3.7489,-3.7198,-3.7109,-3.6888,-3.6838,-3.6777,-3.6731,-3.6785,-3.6555,-3.6534,-3.6514,-3.6439,-3.641,-3.6748,-3.6748,-3.6749,-3.6749,0,-3.8111,-3.7978,-3.7879,-3.7725,-3.7633,-3.7491,-3.7421,-3.7332,-3.7311,-3.7252,-3.7065,-3.6959,-3.6805,-3.6751,-3.6727,-3.6526,-3.6547,-3.6569,-3.6629,-3.6484,-3.6412,-3.6383,-3.6743,-3.6744,-3.6745,-3.6746,0,0,-3.7912,-3.7739,-3.7703,-3.7632,-3.7493,-3.7386,-3.7242,-3.7097,-3.702,-3.6907,-3.678,-3.6586,-3.6606,-3.6517,-3.6482,-3.6383,-3.622,-3.6416,-3.6412,-3.638,-3.5987,-3.5969,-3.5936,-3.6218,-3.6212,-3.6208,-3.5997,0,-3.7721,-3.747,-3.7426,-3.7204,-3.7078,-3.7067,-3.694,-3.6838,-3.6779,-3.6659,-3.6591,-3.6453,-3.6492,-3.6438,-3.634,-3.6262,-3.614,-3.6277,-3.6093,-3.6087,-3.6123,-3.5899,-3.5879,-3.5685,-3.5969,-3.5964,-3.596,0,-3.7464,-3.7349,-3.7116,-3.6993,-3.6938,-3.6826,-3.6688,-3.6576,-3.6458,-3.6421,-3.6324,-3.6301,-3.6144,-3.6216,-3.5997,-3.6091,-3.6013,-3.5963,-3.5954,-3.5932,-3.6012,-3.5866,-3.5622,-3.5591,-3.5916,-3.592,-3.5923,0,-3.7337,-3.7124,-3.6957,-3.6897,-3.675,-3.6671,-3.6605,-3.6493,-3.6408,-3.6286,-3.6229,-3.6089,-3.6011,-3.5901,-3.5839,-3.5897,-3.5622,-3.5689,-3.5582,-3.5584,-3.5521,-3.5525,-3.5257,-3.5479,-3.5479,-3.548,-3.5481,0,-3.7126,-3.6982,-3.6898,-3.6794,-3.6632,-3.6582,-3.642,-3.6355,-3.6255,-3.6134,-3.6116,-3.6001,-3.5929,-3.5802,-3.5752,-3.5576,-3.5542,-3.5503,-3.5491,-3.5503,-3.5507,-3.5448,-3.5458,-3.5472,-3.5474,-3.5475,-3.5477,0,-3.6955,-3.6894,-3.671,-3.6588,-3.6554,-3.6439,-3.6331,-3.6227,-3.6169,-3.6016,-3.5977,-3.5884,-3.5734,-3.5663,-3.5476,-3.5443,-3.5241,-3.524,-3.5282,-3.5277,-3.5173,-3.5182,-3.4854,-3.4806,-3.5063,-3.5061,-3.5059,0,-3.6823,-3.6713,-3.658,-3.6501,-3.6434,-3.6306,-3.622,-3.6166,-3.6077,-3.5935,-3.5846,-3.5698,-3.5576,-3.5336,-3.5248,-3.5104,-3.5096,-3.4991,-3.5074,-3.5089,-3.5089,-3.5095,-3.5082,-3.4975,-3.4972,-3.497,-3.4969,0,-3.6592,-3.6568,-3.6448,-3.6317,-3.6217,-3.611,-3.6004,-3.5938,-3.5867,-3.5766,-3.5616,-3.5522,-3.5334,-3.5184,-3.5035,-3.496,-3.4949,-3.4944,-3.4911,-3.492,-3.4947,-3.4927,-3.5237,-3.4951,-3.4952,-3.4954,-3.4955,-3.4955,-3.6433,-3.6334,-3.6225,-3.6092,-3.6008,-3.591,-3.5806,-3.5737,-3.5613,-3.5459,-3.5434,-3.5273,-3.5155,-3.4954,-3.4875,-3.4745,-3.4768,-3.4721,-3.4708,-3.4696,-3.4689,-3.4973,-3.4717,-3.4718,-3.4718,-3.4719,-3.4719,0,-3.6198,-3.6128,-3.6007,-3.5862,-3.5756,-3.5763,-3.5646,-3.5555,-3.5416,-3.531,-3.5191,-3.5017,-3.4872,-3.4774,-3.4625,-3.4539,-3.453,-3.4502,-3.4505,-3.4487,-3.4678,-3.472,-3.4511,-3.4511,-3.4511,-3.4511,-3.4512,-3.4512,-3.6063,-3.5895,-3.5857,-3.5646,-3.5576,-3.5422,-3.5355,-3.5262,-3.5177,-3.4985,-3.4867,-3.4807,-3.4701,-3.4546,-3.4411,-3.4386,-3.4329,-3.4299,-3.4273,-3.4453,-3.4474,-3.4495,-3.4533,-3.4289,-3.4289,-3.4092,-3.4091,-3.4089]}]]